Mobile, AL

10:49 PM CST on February 12, 2016 (GMT -0600)
Mobile Regional

Weather History for KMOB - April, 2013

Change the Weather History Date:

Tuesday, April 2, 2013

  Actual Average Record
Temperature  
Mean Temperature 63 °F 63 °F  
Max Temperature 79 °F 75 °F 86 °F (1927)
Min Temperature 46 °F 52 °F 32 °F (1881)
Degree Days  
Heating Degree Days 2 4  
Month to date heating degree days 4 8  
Since 1 July heating degree days 1490 1639  
Cooling Degree Days 0 2  
Month to date cooling degree days 0 4  
Year to date cooling degree days 44 59  
Growing Degree Days 12 (Base 50)    
Moisture  
Dew Point 47 °F    
Average Humidity 61    
Maximum Humidity 93    
Minimum Humidity 28    
Precipitation  
Precipitation 0.00 in 0.17 in 2.54 in (1988)
Month to date precipitation 0.00 0.36  
Year to date precipitation 14.98 17.27  
Snow  
Snow 0.00 in 0.00 in - ()
Month to date snowfall 0.0 0.0  
Since 1 July snowfall 0.0 0.2  
Snow Depth 0.00 in    
Sea Level Pressure  
Sea Level Pressure 30.07 in    
Wind  
Wind Speed 6 mph (SE)    
Max Wind Speed 15 mph    
Max Gust Speed 21 mph    
Visibility 7 miles    
Events Fog    
T = Trace of Precipitation, MM = Missing Value Source: NWS Daily Summary

Daily Weather History Graph

Daily Weather History Graph

Search for Another Location

Airport or City:

Trip Planner

Search our weather history database for the weather conditions in past years. The results will help you decide how hot, cold, wet, or windy it might be!

Date:

Astronomy

Apr. 02, 2013 Rise Set
Actual Time 6:40 AM CDT 7:12 PM CDT
Civil Twilight 6:16 AM CDT 7:37 PM CDT
Nautical Twilight 5:47 AM CDT 8:05 PM CDT
Astronomical Twilight 5:18 AM CDT 8:34 PM CDT
Moon 1:01 AM CDT (4/2) 11:47 AM CDT (4/2)
Length of Visible Light 13h 20m
Length of Day
12h 32m
Waning Gibbous, 55% of the Moon is Illuminated
Apr 2
Waning Gibbous
Apr 2
Last Quarter
Apr 10
New
Apr 18
First Quarter
Apr 25
Full

Hourly Weather History & Observations

Time (CDT) Temp. Dew Point Humidity Pressure Visibility Wind Dir Wind Speed Gust Speed Precip Events Conditions
12:56 AM 51.1 °F 48.9 °F 92% 30.06 in 6.0 mi Calm Calm - N/A   Clear
1:56 AM 50.0 °F 48.0 °F 93% 30.07 in 6.0 mi Calm Calm - N/A   Clear
2:56 AM 51.1 °F 48.0 °F 89% 30.06 in 10.0 mi Calm Calm - N/A   Clear
3:34 AM 46.4 °F 46.4 °F 100% 30.07 in 1.5 mi Calm Calm - N/A   Partly Cloudy
3:38 AM 46.4 °F 44.6 °F 93% 30.07 in 0.2 mi Calm Calm - N/A Fog Fog
3:56 AM 48.9 °F 46.9 °F 93% 30.07 in 0.2 mi Calm Calm - N/A Fog Fog
4:56 AM 48.9 °F 46.9 °F 93% 30.06 in 0.2 mi Calm Calm - N/A Fog Fog
5:10 AM 50.0 °F 48.2 °F 94% 30.06 in 0.5 mi Calm Calm - N/A Fog Fog
5:56 AM 46.0 °F 45.0 °F 96% 30.07 in 0.5 mi Calm Calm - N/A Fog Fog
6:09 AM 48.2 °F 46.4 °F 93% 30.08 in 1.0 mi Calm Calm - N/A   Mist
6:20 AM 46.4 °F 46.4 °F 100% 30.08 in 2.5 mi Calm Calm - N/A   Scattered Clouds
6:42 AM 48.2 °F 46.4 °F 93% 30.09 in 3.0 mi North 3.5 mph - N/A   Mostly Cloudy
6:56 AM 48.9 °F 46.9 °F 93% 30.09 in 5.0 mi North 3.5 mph - N/A   Mostly Cloudy
7:56 AM 54.0 °F 52.0 °F 93% 30.12 in 9.0 mi Calm Calm - N/A   Mostly Cloudy
8:56 AM 63.0 °F 51.1 °F 65% 30.12 in 10.0 mi ENE 6.9 mph - N/A   Mostly Cloudy
9:56 AM 70.0 °F 48.0 °F 46% 30.14 in 10.0 mi Variable 3.5 mph - N/A   Mostly Cloudy
10:56 AM 75.0 °F 46.0 °F 36% 30.12 in 10.0 mi ESE 9.2 mph 19.6 mph N/A   Mostly Cloudy
11:56 AM 75.9 °F 42.1 °F 30% 30.12 in 10.0 mi SE 10.4 mph - N/A   Mostly Cloudy
12:56 PM 77.0 °F 43.0 °F 30% 30.11 in 10.0 mi ESE 13.8 mph - N/A   Mostly Cloudy
1:56 PM 77.0 °F 43.0 °F 30% 30.08 in 10.0 mi South 10.4 mph - N/A   Mostly Cloudy
2:56 PM 78.1 °F 43.0 °F 29% 30.05 in 10.0 mi SE 13.8 mph - N/A   Mostly Cloudy
3:56 PM 78.1 °F 43.0 °F 29% 30.04 in 10.0 mi SSE 10.4 mph - N/A   Mostly Cloudy
4:56 PM 75.9 °F 44.1 °F 32% 30.03 in 10.0 mi South 11.5 mph - N/A   Mostly Cloudy
5:56 PM 73.9 °F 41.0 °F 30% 30.02 in 10.0 mi SE 8.1 mph - N/A   Mostly Cloudy
6:56 PM 70.0 °F 46.9 °F 44% 30.03 in 10.0 mi SSE 9.2 mph - N/A   Scattered Clouds
7:56 PM 68.0 °F 50.0 °F 52% 30.05 in 10.0 mi SSE 6.9 mph - N/A   Mostly Cloudy
8:56 PM 66.0 °F 52.0 °F 60% 30.05 in 10.0 mi SSE 3.5 mph - N/A   Mostly Cloudy
9:56 PM 64.9 °F 54.0 °F 68% 30.05 in 10.0 mi ESE 4.6 mph - N/A   Scattered Clouds
10:56 PM 64.9 °F 54.0 °F 68% 30.04 in 10.0 mi Calm Calm - N/A   Overcast
11:56 PM 64.0 °F 54.0 °F 70% 30.03 in 10.0 mi ESE 4.6 mph - N/A   Clear